Погода в Алтае

Россия / Ханты-Мансийский автономный округ - Югра     60°19′49″N   68°57′41″E
темп.,
°C
ветер,
м/с
пор.,
м/с
влажн.,
%
обл.,
%
осадки,
мм/ч
давл.,
гПа
погр.,
м
18 августа, чт
чт1823:00+6ссз3988100 0.1 1021184
02:00+7ссз2688100 0.0 1021228
05:00+7сз3890100 0.1 1021555
08:00+7зсз3793100 0.2 1022513
11:00+8сз3492100 0.3 1023459
14:00+9ссз2488100 0.1 1024514
17:00+11сз2384100 0.2 1024401
20:00+10с389391 0.2 1025214
19 августа, пт
пт1923:00+10сз2694100 0.2 1025169
02:00+10сз31092100 0.0 1025332
05:00+10сз3992100 0.0 1025307
08:00+10зсз3796100 0.6 1024234
11:00+11сз3893100 0.9 1024354
14:00+13с2482100 0.0 1023402
17:00+13юв2386100 0.0 1023138
20:00+11ююв2290100 0.1 102356
20 августа, сб
сб2023:00+10ю239599 0.4 102374
02:00+10ююз2797100 0.2 1022151
05:00+11юз4897100 2.1 1021227
08:00+13зюз359350 0.6 1021230
11:00+16сз2796100 0.8 1021563
14:00+14ссв5992100 0.8 1022681
17:00+14ссв5884100 0.8 1024804
20:00+12с3987100 0.0 1025408
21 августа, вс
вс2123:00+9с36885 0.0 1025103
02:00+7с37835 0.0 1026124
05:00+6с367914 0.0 1027119
08:00+11ссв36585 0.0 1027342
11:00+16ссв46376 0.0 1027960
14:00+18с45338 0.0 10271303
17:00+18с35365 0.0 10271316
20:00+13св1158100 0.0 102710
22 августа, пн
пн2223:00+11ююз00615 0.0 102810
02:00+10юз226413 0.0 102811
05:00+9зюз226893 0.0 102927
08:00+15зюз355215 0.0 1029219
11:00+19з3551100 0.0 1028511
14:00+22з365069 0.0 1027796
17:00+24зюз35536 0.0 1026923
20:00+19зюз367752 0.0 102694